TimeCST,TemperatureF,Dew PointF,Humidity,Sea Level PressureIn,VisibilityMPH,Wind Direction,Wind SpeedMPH,Gust SpeedMPH,PrecipitationIn,Events,Conditions,WindDirDegrees,DateUTC
12:00 AM,77,64,56,29.96,17,NE,13.8,,,,Scattered Clouds,40,2013-01-19 06:00:00
12:00 AM,77.0,64.4,65,-9999,6.2,NE,13.8,-,N/A,,Partly Cloudy,40,2013-01-19 06:00:00
6:00 AM,74,61,55,29.96,17,ENE,13.8,,,,Scattered Clouds,60,2013-01-19 12:00:00
6:00 AM,73.4,60.8,65,-9999,6.2,ENE,13.8,-,N/A,,Scattered Clouds,60,2013-01-19 12:00:00
7:00 AM,77.0,62.6,61,-9999,6.2,NNE,11.5,-,N/A,,Partly Cloudy,30,2013-01-19 13:00:00
8:00 AM,78.8,60.8,54,-9999,6.2,NNE,16.1,-,N/A,,Partly Cloudy,20,2013-01-19 14:00:00
9:00 AM,81,61,41,29.99,17,NNE,16.1,,,,Scattered Clouds,30,2013-01-19 15:00:00
9:00 AM,80.6,60.8,51,-9999,6.2,NNE,16.1,-,N/A,,Partly Cloudy,30,2013-01-19 15:00:00
10:00 AM,84.2,62.6,48,-9999,6.2,NNE,18.4,-,N/A,,Partly Cloudy,20,2013-01-19 16:00:00
11:00 AM,86.0,62.6,45,-9999,6.2,NNE,18.4,-,N/A,,Partly Cloudy,30,2013-01-19 17:00:00
12:00 PM,88,63,33,29.94,17,NNE,20.7,,,,Partly Cloudy,30,2013-01-19 18:00:00
12:00 PM,87.8,62.6,43,-9999,6.2,NNE,20.7,-,N/A,,Scattered Clouds,30,2013-01-19 18:00:00
1:00 PM,87.8,62.6,43,-9999,6.2,NNE,18.4,-,N/A,,Scattered Clouds,20,2013-01-19 19:00:00
2:00 PM,89.6,62.6,40,-9999,6.2,NNE,20.7,-,N/A,,Scattered Clouds,30,2013-01-19 20:00:00
3:00 PM,89,63,31,29.88,17,NNE,23.0,,,,,20,2013-01-19 21:00:00
3:00 PM,89.6,62.6,40,-9999,6.2,NNE,23.0,-,N/A,,Scattered Clouds,20,2013-01-19 21:00:00
4:00 PM,87.8,62.6,43,-9999,6.2,North,23.0,-,N/A,,Partly Cloudy,10,2013-01-19 22:00:00
5:00 PM,84.2,62.6,48,-9999,6.2,NNE,20.7,-,N/A,,Partly Cloudy,20,2013-01-19 23:00:00
6:00 PM,82,64,44,29.87,17,North,18.4,,,,Scattered Clouds,10,2013-01-20 00:00:00
6:00 PM,82.4,64.4,54,-9999,6.2,North,18.4,-,N/A,,Partly Cloudy,10,2013-01-20 00:00:00
7:00 PM,78.8,64.4,61,-9999,6.2,NNE,16.1,-,N/A,,Partly Cloudy,30,2013-01-20 01:00:00
8:00 PM,78.8,57.2,47,-9999,6.2,NNE,16.1,-,N/A,,Partly Cloudy,20,2013-01-20 02:00:00
9:00 PM,78,65,56,29.91,17,NNE,13.8,,,,Scattered Clouds,30,2013-01-20 03:00:00
9:00 PM,78.8,64.4,61,-9999,6.2,NNE,13.8,-,N/A,,Partly Cloudy,30,2013-01-20 03:00:00
10:00 PM,77.0,64.4,65,-9999,6.2,NNE,16.1,-,N/A,,Partly Cloudy,20,2013-01-20 04:00:00
11:00 PM,77.0,64.4,65,-9999,6.2,NNE,13.8,-,N/A,,Partly Cloudy,30,2013-01-20 05:00:00